Bloomington, IN

7:59 PM EST on January 17, 2017 (GMT -0500)
Monroe County

Weather History for KBMG - October, 2010

Change the Weather History Date:

Sunday, October 31, 2010

  Actual Average Record
Temperature  
Mean Temperature 47 °F 50 °F  
Max Temperature 58 °F 62 °F 77 °F (1999)
Min Temperature 35 °F 39 °F 32 °F (1996)
Degree Days  
Heating Degree Days 18 15  
Month to date heating degree days 279 334  
Since 1 July heating degree days 319 419  
Cooling Degree Days 0 0  
Month to date cooling degree days 13 13  
Year to date cooling degree days 1321 926  
Moisture  
Dew Point 29 °F    
Average Humidity 52    
Maximum Humidity 76    
Minimum Humidity 28    
Precipitation  
Precipitation 0.00 in 0.10 in 1.31 in (2013)
Month to date precipitation 0.76 3.53  
Year to date precipitation 31.19 40.07  
Sea Level Pressure  
Sea Level Pressure 30.08 in    
Wind  
Wind Speed 7 mph (NE)    
Max Wind Speed 16 mph    
Max Gust Speed 22 mph    
Visibility 10 miles    
Events      
T = Trace of Precipitation, MM = Missing Value Source: NWS Daily Summary

Daily Weather History Graph

Daily Weather History Graph

Search for Another Location

Airport or City:

Trip Planner

Search our weather history database for the weather conditions in past years. The results will help you decide how hot, cold, wet, or windy it might be!

Date:

Astronomy

Oct. 31, 2010 Rise Set
Actual Time 8:12 AM EDT 6:46 PM EDT
Civil Twilight 7:45 AM EDT 7:14 PM EDT
Nautical Twilight 7:13 AM EDT 7:45 PM EDT
Astronomical Twilight 6:42 AM EDT 8:16 PM EDT
Moon 1:41 AM EDT (10/31) 3:20 PM EDT (10/31)
Length of Visible Light 11h 29m
Length of Day
10h 33m
Last Quarter, 37% of the Moon is Illuminated
Oct 31
Last Quarter
Nov 6
New
Nov 13
First Quarter
Nov 21
Full
Nov 28
Last Quarter

Hourly Weather History & Observations

Time (EDT) Temp. Windchill Dew Point Humidity Pressure Visibility Wind Dir Wind Speed Gust Speed Precip Events Conditions
12:53 AM 53.1 °F - 28.9 °F 40% 29.91 in 10.0 mi West 8.1 mph - N/A   Clear
1:53 AM 50.0 °F - 28.9 °F 44% 29.92 in 10.0 mi West 4.6 mph - N/A   Clear
2:53 AM 46.9 °F - 28.9 °F 50% 29.93 in 10.0 mi Calm Calm - N/A   Clear
3:53 AM 48.0 °F - 30.0 °F 50% 29.93 in 10.0 mi Calm Calm - N/A   Clear
4:53 AM 42.1 °F - 30.0 °F 62% 29.94 in 10.0 mi Calm Calm - N/A   Clear
5:53 AM 39.9 °F - 30.0 °F 68% 29.97 in 10.0 mi Calm Calm - N/A   Clear
6:53 AM 37.0 °F 31.6 °F 30.0 °F 76% 29.99 in 10.0 mi North 6.9 mph - N/A   Clear
7:53 AM 42.1 °F 36.1 °F 35.1 °F 76% 30.01 in 10.0 mi NNE 10.4 mph - N/A   Clear
8:53 AM 43.0 °F 38.2 °F 36.0 °F 76% 30.04 in 10.0 mi NNE 8.1 mph - N/A   Clear
9:53 AM 45.0 °F 39.7 °F 37.0 °F 74% 30.07 in 10.0 mi NE 10.4 mph 20.7 mph N/A   Clear
10:53 AM 48.0 °F - 37.0 °F 66% 30.09 in 10.0 mi NE 12.7 mph - N/A   Clear
11:53 AM 51.1 °F - 37.0 °F 59% 30.11 in 10.0 mi NNE 10.4 mph 17.3 mph N/A   Clear
12:53 PM 54.0 °F - 35.1 °F 49% 30.12 in 10.0 mi NE 11.5 mph - N/A   Clear
2:53 PM 57.0 °F - 27.0 °F 32% 30.11 in 10.0 mi NNE 12.7 mph 18.4 mph N/A   Clear
3:53 PM 57.9 °F - 25.0 °F 28% 30.11 in 10.0 mi ENE 11.5 mph 16.1 mph N/A   Clear
4:53 PM 55.9 °F - 25.0 °F 30% 30.12 in 10.0 mi East 9.2 mph - N/A   Clear
5:53 PM 54.0 °F - 24.1 °F 31% 30.14 in 10.0 mi NE 9.2 mph - N/A   Clear
6:53 PM 50.0 °F - 23.0 °F 35% 30.16 in 10.0 mi NE 5.8 mph - N/A   Clear
7:53 PM 46.9 °F - 23.0 °F 39% 30.18 in 10.0 mi NE 6.9 mph - N/A   Clear
8:53 PM 45.0 °F 42.6 °F 23.0 °F 42% 30.20 in 10.0 mi NE 4.6 mph - N/A   Clear
9:53 PM 45.0 °F 42.6 °F 24.1 °F 44% 30.22 in 10.0 mi ENE 4.6 mph - N/A   Clear
10:53 PM 44.1 °F 40.8 °F 24.1 °F 45% 30.24 in 10.0 mi ENE 5.8 mph - N/A   Clear
11:53 PM 43.0 °F 39.5 °F 25.0 °F 49% 30.25 in 10.0 mi East 5.8 mph - N/A   Clear